N852SB BIKF-EKVG

Flight info

Callsign N852SB
Flight time 1h 23m
Altitude 29000
Route OSKUM3C OSKUM DCT MAGNI
Aircraft TBM9/L-SDFGRWY/S

Departure

Time 2026-04-29 18:05
Airport Keflavik International Airport (BIKF)

Arrival

Time 2026-04-29 19:29
Airport Vágar Airport (EKVG)
Time Latitude Longitude Altitude Speed Heading
2026-04-29 17:58 63.97443 -22.59036 156 ft 0 kts 118°
2026-04-29 18:00 63.97441 -22.59025 156 ft 4 kts 116°
2026-04-29 18:00 63.97471 -22.59058 156 ft 13 kts 304°
2026-04-29 18:01 63.97540 -22.59185 157 ft 13 kts
2026-04-29 18:01 63.97632 -22.59122 159 ft 15 kts 18°
2026-04-29 18:01 63.97734 -22.59042 161 ft 17 kts 19°
2026-04-29 18:01 63.97843 -22.58945 163 ft 17 kts 21°
2026-04-29 18:02 63.97954 -22.58866 166 ft 16 kts 351°
2026-04-29 18:02 63.98066 -22.58903 167 ft 17 kts 343°
2026-04-29 18:02 63.98177 -22.59004 169 ft 18 kts 335°
2026-04-29 18:02 63.98292 -22.59110 171 ft 19 kts 338°
2026-04-29 18:03 63.98416 -22.59229 171 ft 20 kts 337°
2026-04-29 18:03 63.98502 -22.59433 169 ft 19 kts 270°
2026-04-29 18:03 63.98503 -22.59764 166 ft 23 kts 269°
2026-04-29 18:03 63.98502 -22.60132 163 ft 24 kts 269°
2026-04-29 18:04 63.98505 -22.60475 161 ft 13 kts 258°
2026-04-29 18:04 63.98483 -22.60521 161 ft 0 kts 180°
2026-04-29 18:04 63.98478 -22.60521 161 ft 7 kts 192°
2026-04-29 18:04 63.98189 -22.60539 158 ft 78 kts 179°
2026-04-29 18:05 63.97531 -22.60545 423 ft 107 kts 182°
2026-04-29 18:05 63.96707 -22.60501 778 ft 131 kts 180°
2026-04-29 18:05 63.95776 -22.60300 1458 ft 136 kts 175°
2026-04-29 18:05 63.94848 -22.59601 2157 ft 148 kts 154°
2026-04-29 18:06 63.94263 -22.57450 2700 ft 185 kts 106°
2026-04-29 18:06 63.94279 -22.54336 3166 ft 195 kts 107°
2026-04-29 18:06 63.93778 -22.51621 3625 ft 187 kts 130°
2026-04-29 18:06 63.93158 -22.48992 4095 ft 193 kts 125°
2026-04-29 18:07 63.92609 -22.46171 4544 ft 195 kts 122°
2026-04-29 18:07 63.92087 -22.43379 5116 ft 189 kts 123°
2026-04-29 18:07 63.91550 -22.40609 5580 ft 193 kts 124°
2026-04-29 18:07 63.91005 -22.37822 6080 ft 194 kts 123°
2026-04-29 18:08 63.90455 -22.34988 6559 ft 196 kts 123°
2026-04-29 18:08 63.89906 -22.32166 7011 ft 198 kts 124°
2026-04-29 18:08 63.89338 -22.29259 7494 ft 201 kts 124°
2026-04-29 18:08 63.88768 -22.26341 7969 ft 204 kts 124°
2026-04-29 18:09 63.88198 -22.23418 8425 ft 206 kts 125°
2026-04-29 18:09 63.87615 -22.20439 8933 ft 208 kts 126°
2026-04-29 18:09 63.87022 -22.17423 9439 ft 210 kts 126°
2026-04-29 18:09 63.86422 -22.14369 9918 ft 213 kts 126°
2026-04-29 18:10 63.85819 -22.11294 10366 ft 214 kts 127°
2026-04-29 18:10 63.85204 -22.08169 10823 ft 216 kts 127°
2026-04-29 18:10 63.84589 -22.05056 11274 ft 217 kts 128°
2026-04-29 18:10 63.83971 -22.01906 11726 ft 220 kts 127°
2026-04-29 18:11 63.83586 -21.98470 12168 ft 236 kts 110°
2026-04-29 18:11 63.83401 -21.94737 12620 ft 238 kts 110°
2026-04-29 18:11 63.83190 -21.90994 13048 ft 240 kts 111°
2026-04-29 18:11 63.82975 -21.87222 13481 ft 242 kts 111°
2026-04-29 18:12 63.82765 -21.83423 13889 ft 244 kts 111°
2026-04-29 18:12 63.82553 -21.79629 14268 ft 245 kts 111°
2026-04-29 18:12 63.82337 -21.75771 14646 ft 247 kts 112°
2026-04-29 18:12 63.82115 -21.71866 15028 ft 249 kts 112°
2026-04-29 18:13 63.81894 -21.67979 15403 ft 251 kts 112°
2026-04-29 18:13 63.81671 -21.64065 15789 ft 252 kts 113°
2026-04-29 18:13 63.81445 -21.60141 16162 ft 254 kts 113°
2026-04-29 18:13 63.81215 -21.56150 16545 ft 256 kts 114°
2026-04-29 18:14 63.80983 -21.52151 16926 ft 257 kts 114°
2026-04-29 18:14 63.80747 -21.48089 17306 ft 259 kts 114°
2026-04-29 18:14 63.80509 -21.44032 17683 ft 261 kts 115°
2026-04-29 18:14 63.80268 -21.39946 18056 ft 263 kts 115°
2026-04-29 18:15 63.80028 -21.35876 18403 ft 264 kts 115°
2026-04-29 18:15 63.79782 -21.31741 18728 ft 266 kts 115°
2026-04-29 18:15 63.79533 -21.27575 19052 ft 267 kts 116°
2026-04-29 18:15 63.79282 -21.23389 19376 ft 269 kts 116°
2026-04-29 18:16 63.79028 -21.19186 19699 ft 270 kts 117°
2026-04-29 18:16 63.78771 -21.14955 20024 ft 272 kts 117°
2026-04-29 18:16 63.78514 -21.10728 20347 ft 273 kts 117°
2026-04-29 18:16 63.78251 -21.06435 20711 ft 275 kts 118°
2026-04-29 18:17 63.77990 -21.02190 21057 ft 276 kts 118°
2026-04-29 18:17 63.77584 -20.98038 21412 ft 264 kts 128°
2026-04-29 18:17 63.77095 -20.93997 21760 ft 267 kts 127°
2026-04-29 18:17 63.76629 -20.89924 22113 ft 269 kts 127°
2026-04-29 18:18 63.76160 -20.85858 22464 ft 270 kts 128°
2026-04-29 18:18 63.75674 -20.81738 22815 ft 271 kts 129°
2026-04-29 18:18 63.75183 -20.77600 23169 ft 273 kts 129°
2026-04-29 18:18 63.74694 -20.73457 23515 ft 274 kts 129°
2026-04-29 18:19 63.74200 -20.69276 23813 ft 275 kts 130°
2026-04-29 18:19 63.73705 -20.65105 24107 ft 276 kts 130°
2026-04-29 18:19 63.73203 -20.60893 24392 ft 277 kts 130°
2026-04-29 18:19 63.72705 -20.56732 24687 ft 278 kts 130°
2026-04-29 18:20 63.72191 -20.52440 24973 ft 279 kts 130°
2026-04-29 18:20 63.71689 -20.48265 25251 ft 280 kts 130°
2026-04-29 18:20 63.71188 -20.43954 25534 ft 288 kts 127°
2026-04-29 18:20 63.70844 -20.39414 25824 ft 296 kts 123°
2026-04-29 18:21 63.70505 -20.34817 26107 ft 296 kts 123°
2026-04-29 18:21 63.70150 -20.30299 26386 ft 296 kts 124°
2026-04-29 18:21 63.69793 -20.25696 26666 ft 298 kts 123°
2026-04-29 18:21 63.69439 -20.21054 26947 ft 300 kts 123°
2026-04-29 18:22 63.69083 -20.16411 27225 ft 301 kts 123°
2026-04-29 18:22 63.68721 -20.11749 27499 ft 302 kts 123°
2026-04-29 18:22 63.68356 -20.07083 27777 ft 303 kts 123°
2026-04-29 18:22 63.67994 -20.02441 28050 ft 304 kts 123°
2026-04-29 18:23 63.67621 -19.97686 28327 ft 305 kts 123°
2026-04-29 18:23 63.67251 -19.93004 28598 ft 306 kts 123°
2026-04-29 18:23 63.66876 -19.88281 28854 ft 307 kts 123°
2026-04-29 18:23 63.66493 -19.83500 28992 ft 312 kts 123°
2026-04-29 18:24 63.66086 -19.78591 28991 ft 323 kts 123°
2026-04-29 18:24 63.65271 -19.68413 28993 ft 340 kts 121°
2026-04-29 18:25 63.64415 -19.57802 28994 ft 346 kts 121°
2026-04-29 18:25 63.63537 -19.47134 28994 ft 353 kts 121°
2026-04-29 18:26 63.62784 -19.38030 29005 ft 356 kts 121°
2026-04-29 18:26 63.61871 -19.27052 28996 ft 356 kts 121°
2026-04-29 18:27 63.60950 -19.16163 29000 ft 356 kts 121°
2026-04-29 18:27 63.60019 -19.05211 28999 ft 356 kts 121°
2026-04-29 18:28 63.59077 -18.94277 29000 ft 355 kts 121°
2026-04-29 18:28 63.58129 -18.83382 28999 ft 357 kts 121°
2026-04-29 18:29 63.57174 -18.72448 29002 ft 357 kts 121°
2026-04-29 18:29 63.56206 -18.61537 29001 ft 357 kts 121°
2026-04-29 18:30 63.55229 -18.50579 29002 ft 358 kts 121°
2026-04-29 18:30 63.54247 -18.39689 29008 ft 358 kts 121°
2026-04-29 18:31 63.53249 -18.28719 29013 ft 358 kts 121°
2026-04-29 18:31 63.52250 -18.17824 29012 ft 358 kts 121°
2026-04-29 18:32 63.51235 -18.06866 29018 ft 359 kts 121°
2026-04-29 18:32 63.49703 -17.90495 29019 ft 359 kts 121°
2026-04-29 18:33 63.48663 -17.79519 29025 ft 359 kts 121°
2026-04-29 18:33 63.47621 -17.68601 29021 ft 359 kts 121°
2026-04-29 18:34 63.46745 -17.59499 29019 ft 359 kts 121°
2026-04-29 18:34 63.45505 -17.46728 29029 ft 359 kts 121°
2026-04-29 18:35 63.44436 -17.35822 29031 ft 359 kts 121°
2026-04-29 18:35 63.43360 -17.24939 29032 ft 360 kts 121°
2026-04-29 18:36 63.42277 -17.14061 29035 ft 359 kts 121°
2026-04-29 18:36 63.41181 -17.03164 29036 ft 359 kts 121°
2026-04-29 18:37 63.40075 -16.92250 29037 ft 359 kts 121°
2026-04-29 18:37 63.38966 -16.81391 29040 ft 359 kts 121°
2026-04-29 18:38 63.37844 -16.70503 29039 ft 359 kts 121°
2026-04-29 18:38 63.36724 -16.59719 29041 ft 359 kts 121°
2026-04-29 18:39 63.35588 -16.48865 29037 ft 359 kts 121°
2026-04-29 18:39 63.34451 -16.38101 29043 ft 359 kts 121°
2026-04-29 18:40 63.33297 -16.27246 29044 ft 359 kts 121°
2026-04-29 18:40 63.32140 -16.16462 29042 ft 359 kts 121°
2026-04-29 18:41 63.29800 -15.94888 29047 ft 359 kts 121°
2026-04-29 18:42 63.28613 -15.84071 29052 ft 359 kts 121°
2026-04-29 18:42 63.27425 -15.73334 29044 ft 359 kts 121°
2026-04-29 18:43 63.26220 -15.62521 29051 ft 359 kts 121°
2026-04-29 18:43 63.25020 -15.51833 29049 ft 359 kts 121°
2026-04-29 18:44 63.23797 -15.41028 29049 ft 359 kts 121°
2026-04-29 18:44 63.22578 -15.30332 29051 ft 359 kts 121°
2026-04-29 18:45 63.21346 -15.19608 29052 ft 359 kts 121°
2026-04-29 18:45 63.20101 -15.08842 29054 ft 359 kts 121°
2026-04-29 18:46 63.18857 -14.98166 29054 ft 359 kts 121°
2026-04-29 18:46 63.17596 -14.87431 29058 ft 359 kts 121°
2026-04-29 18:47 63.16334 -14.76753 29060 ft 359 kts 120°
2026-04-29 18:47 63.15060 -14.66058 29055 ft 358 kts 121°
2026-04-29 18:48 63.13782 -14.55411 29055 ft 359 kts 121°
2026-04-29 18:48 63.12491 -14.44720 29058 ft 358 kts 120°
2026-04-29 18:49 63.11206 -14.34163 29063 ft 358 kts 121°
2026-04-29 18:49 63.09907 -14.23557 29064 ft 358 kts 121°
2026-04-29 18:50 63.08596 -14.12935 29069 ft 357 kts 120°
2026-04-29 18:50 63.07286 -14.02395 29064 ft 357 kts 121°
2026-04-29 18:51 63.05957 -13.91769 29066 ft 357 kts 121°
2026-04-29 18:51 63.04634 -13.81271 29064 ft 357 kts 120°
2026-04-29 18:52 63.03295 -13.70715 29061 ft 357 kts 120°
2026-04-29 18:52 63.01958 -13.60234 29077 ft 356 kts 120°
2026-04-29 18:53 63.00611 -13.49758 29078 ft 356 kts 120°
2026-04-29 18:53 62.99248 -13.39230 29073 ft 356 kts 121°
2026-04-29 18:54 62.97890 -13.28799 29078 ft 356 kts 121°
2026-04-29 18:54 62.96520 -13.18348 29080 ft 356 kts 120°
2026-04-29 18:55 62.95138 -13.07886 29082 ft 356 kts 120°
2026-04-29 18:55 62.93751 -12.97439 29084 ft 355 kts 120°
2026-04-29 18:56 62.92362 -12.87054 29089 ft 355 kts 120°
2026-04-29 18:56 62.90960 -12.76631 29092 ft 355 kts 120°
2026-04-29 18:57 62.89559 -12.66290 29095 ft 355 kts 120°
2026-04-29 18:57 62.88140 -12.55878 29099 ft 355 kts 120°
2026-04-29 18:58 62.86727 -12.45580 29106 ft 354 kts 120°
2026-04-29 18:58 62.85302 -12.35257 29111 ft 354 kts 120°
2026-04-29 18:59 62.83863 -12.24891 29111 ft 354 kts 120°
2026-04-29 18:59 62.82428 -12.14625 29115 ft 354 kts 120°
2026-04-29 19:00 62.80979 -12.04325 29121 ft 354 kts 120°
2026-04-29 19:00 62.79545 -11.94189 29121 ft 353 kts 120°
2026-04-29 19:01 62.78079 -11.83892 29127 ft 353 kts 120°
2026-04-29 19:01 62.76618 -11.73696 29131 ft 353 kts 120°
2026-04-29 19:02 62.75389 -11.65161 29128 ft 353 kts 120°
2026-04-29 19:02 62.73668 -11.53283 29137 ft 353 kts 120°
2026-04-29 19:03 62.72183 -11.43109 29033 ft 354 kts 120°
2026-04-29 19:03 62.71432 -11.37997 28687 ft 354 kts 120°
2026-04-29 19:03 62.70682 -11.32882 28390 ft 354 kts 120°
2026-04-29 19:04 62.69926 -11.27744 28099 ft 354 kts 120°
2026-04-29 19:04 62.69177 -11.22677 27909 ft 354 kts 120°
2026-04-29 19:04 62.68414 -11.17553 27588 ft 354 kts 120°
2026-04-29 19:04 62.67655 -11.12446 27249 ft 354 kts 120°
2026-04-29 19:05 62.67151 -11.09062 27021 ft 354 kts 120°
2026-04-29 19:05 62.66386 -11.03940 26679 ft 354 kts 120°
2026-04-29 19:05 62.65633 -10.98921 26340 ft 354 kts 120°
2026-04-29 19:05 62.64612 -10.92138 25880 ft 354 kts 120°
2026-04-29 19:06 62.64091 -10.88684 25643 ft 354 kts 120°
2026-04-29 19:06 62.63319 -10.83584 25304 ft 354 kts 120°
2026-04-29 19:06 62.61781 -10.73453 24618 ft 354 kts 120°
2026-04-29 19:07 62.61005 -10.68371 24274 ft 354 kts 120°
2026-04-29 19:07 62.60489 -10.64999 24047 ft 354 kts 120°
2026-04-29 19:07 62.59444 -10.58184 23564 ft 355 kts 120°
2026-04-29 19:07 62.58669 -10.53148 23202 ft 355 kts 120°
2026-04-29 19:08 62.57890 -10.48105 22849 ft 355 kts 120°
2026-04-29 19:08 62.57102 -10.43019 22506 ft 355 kts 120°
2026-04-29 19:08 62.56311 -10.37923 22163 ft 355 kts 120°
2026-04-29 19:08 62.55524 -10.32864 21821 ft 355 kts 120°
2026-04-29 19:09 62.54730 -10.27770 21474 ft 354 kts 120°
2026-04-29 19:09 62.53951 -10.22793 21136 ft 353 kts 120°
2026-04-29 19:09 62.53160 -10.17754 20796 ft 352 kts 120°
2026-04-29 19:09 62.52368 -10.12722 20449 ft 351 kts 120°
2026-04-29 19:10 62.51577 -10.07706 20113 ft 350 kts 120°
2026-04-29 19:10 62.50799 -10.02791 19774 ft 348 kts 120°
2026-04-29 19:10 62.50010 -9.97823 19437 ft 347 kts 120°
2026-04-29 19:10 62.49224 -9.92885 19100 ft 346 kts 120°
2026-04-29 19:11 62.48438 -9.87958 18769 ft 345 kts 120°
2026-04-29 19:11 62.47663 -9.83116 18424 ft 344 kts 120°
2026-04-29 19:11 62.46882 -9.78245 18064 ft 342 kts 119°
2026-04-29 19:11 62.46093 -9.73335 17721 ft 340 kts 119°
2026-04-29 19:12 62.45329 -9.68602 17402 ft 338 kts 119°
2026-04-29 19:12 62.44553 -9.63802 17070 ft 336 kts 119°
2026-04-29 19:12 62.43781 -9.59045 16750 ft 335 kts 119°
2026-04-29 19:12 62.43270 -9.55900 16532 ft 334 kts 119°
2026-04-29 19:13 62.42245 -9.49611 16094 ft 331 kts 119°
2026-04-29 19:13 62.41484 -9.44949 15779 ft 329 kts 119°
2026-04-29 19:13 62.40721 -9.40286 15462 ft 327 kts 119°
2026-04-29 19:13 62.39960 -9.35661 15147 ft 325 kts 119°
2026-04-29 19:14 62.39214 -9.31128 14832 ft 324 kts 119°
2026-04-29 19:14 62.38458 -9.26549 14521 ft 323 kts 119°
2026-04-29 19:14 62.37697 -9.21955 14203 ft 322 kts 119°
2026-04-29 19:14 62.36954 -9.17480 13796 ft 322 kts 119°
2026-04-29 19:15 62.36188 -9.12902 13281 ft 323 kts 119°
2026-04-29 19:15 62.35448 -9.08413 12931 ft 313 kts 119°
2026-04-29 19:15 62.34720 -9.04021 12619 ft 307 kts 119°
2026-04-29 19:15 62.34005 -8.99752 12321 ft 304 kts 119°
2026-04-29 19:16 62.33285 -8.95486 12024 ft 301 kts 119°
2026-04-29 19:16 62.32571 -8.91255 11733 ft 300 kts 119°
2026-04-29 19:16 62.31868 -8.87092 11448 ft 298 kts 119°
2026-04-29 19:16 62.31158 -8.82891 11155 ft 297 kts 119°
2026-04-29 19:17 62.30452 -8.78728 10865 ft 296 kts 119°
2026-04-29 19:17 62.29745 -8.74564 10581 ft 295 kts 119°
2026-04-29 19:17 62.29045 -8.70447 10300 ft 294 kts 118°
2026-04-29 19:17 62.28339 -8.66311 10000 ft 293 kts 118°
2026-04-29 19:18 62.27639 -8.62213 9701 ft 292 kts 118°
2026-04-29 19:18 62.27176 -8.59500 9513 ft 291 kts 118°
2026-04-29 19:18 62.26242 -8.54063 9133 ft 289 kts 118°
2026-04-29 19:18 62.25545 -8.50012 8856 ft 288 kts 118°
2026-04-29 19:19 62.24849 -8.45987 8576 ft 288 kts 118°
2026-04-29 19:19 62.24148 -8.41940 8294 ft 288 kts 118°
2026-04-29 19:19 62.23464 -8.37981 8017 ft 286 kts 118°
2026-04-29 19:19 62.22783 -8.34019 7745 ft 282 kts 118°
2026-04-29 19:20 62.22104 -8.30094 7472 ft 277 kts 118°
2026-04-29 19:20 62.21431 -8.26242 7204 ft 275 kts 118°
2026-04-29 19:20 62.20760 -8.22420 6938 ft 273 kts 118°
2026-04-29 19:20 62.20091 -8.18602 6673 ft 272 kts 118°
2026-04-29 19:21 62.19428 -8.14816 6394 ft 270 kts 118°
2026-04-29 19:21 62.18775 -8.11097 6135 ft 269 kts 118°
2026-04-29 19:21 62.18115 -8.07343 5873 ft 266 kts 118°
2026-04-29 19:21 62.17468 -8.03662 5613 ft 264 kts 118°
2026-04-29 19:22 62.16815 -7.99980 5359 ft 263 kts 118°
2026-04-29 19:22 62.16166 -7.96321 5106 ft 262 kts 118°
2026-04-29 19:22 62.15527 -7.92709 4846 ft 261 kts 118°
2026-04-29 19:22 62.14891 -7.89121 4602 ft 256 kts 117°
2026-04-29 19:23 62.14266 -7.85592 4350 ft 253 kts 117°
2026-04-29 19:23 62.13638 -7.82084 4110 ft 250 kts 117°
2026-04-29 19:23 62.13147 -7.78582 3860 ft 245 kts 104°
2026-04-29 19:23 62.12914 -7.74981 3638 ft 242 kts 104°
2026-04-29 19:24 62.12631 -7.71428 3407 ft 242 kts 105°
2026-04-29 19:24 62.12352 -7.67942 3178 ft 239 kts 105°
2026-04-29 19:24 62.12087 -7.64449 2952 ft 234 kts 105°
2026-04-29 19:24 62.11830 -7.61040 2723 ft 225 kts 105°
2026-04-29 19:25 62.11581 -7.57825 2497 ft 220 kts 106°
2026-04-29 19:25 62.11334 -7.54640 2303 ft 219 kts 105°
2026-04-29 19:25 62.11094 -7.51471 2099 ft 209 kts 105°
2026-04-29 19:25 62.10866 -7.48488 1898 ft 188 kts 106°
2026-04-29 19:26 62.10661 -7.45827 1720 ft 181 kts 107°
2026-04-29 19:26 62.10227 -7.43366 1556 ft 172 kts 128°
2026-04-29 19:26 62.09542 -7.41326 1501 ft 172 kts 141°
2026-04-29 19:26 62.08758 -7.39508 1145 ft 166 kts 139°
2026-04-29 19:27 62.08209 -7.37507 828 ft 148 kts 112°
2026-04-29 19:27 62.07954 -7.35335 694 ft 154 kts 114°
2026-04-29 19:27 62.07718 -7.33532 734 ft 97 kts 114°
2026-04-29 19:27 62.07518 -7.32270 688 ft 85 kts 134°
2026-04-29 19:28 62.07251 -7.31277 569 ft 72 kts 124°
2026-04-29 19:28 62.06990 -7.30298 482 ft 83 kts 126°
2026-04-29 19:28 62.06720 -7.29205 348 ft 83 kts 123°
2026-04-29 19:28 62.06493 -7.28275 259 ft 51 kts 117°
2026-04-29 19:29 62.06414 -7.27989 259 ft 8 kts 94°
2026-04-29 19:29 62.06446 -7.28088 259 ft 18 kts 298°
2026-04-29 19:29 62.06550 -7.28082 259 ft 19 kts 13°
2026-04-29 19:29 62.06641 -7.27987 259 ft 16 kts 108°
2026-04-29 19:30 62.06594 -7.27760 257 ft 16 kts 117°
2026-04-29 19:30 62.06580 -7.27643 256 ft 6 kts 23°
2026-04-29 19:30 62.06584 -7.27640 256 ft 0 kts 26°